Ellensburg, WA

8:43 AM PST on January 18, 2018 (GMT -0800)
Bowers

Weather History for KELN - March, 2014

Change the Weather History Date:

Monday, March 10, 2014

  Actual Average (KYKM) Record (KYKM)
Temperature  
Mean Temperature 48 °F -  
Max Temperature 54 °F 56 °F 69 °F (2005)
Min Temperature 41 °F 30 °F 4 °F (1951)
Degree Days  
Heating Degree Days 18    
Moisture  
Dew Point 33 °F    
Average Humidity 61    
Maximum Humidity 74    
Minimum Humidity 41    
Precipitation  
Precipitation 0.00 in - - ()
Sea Level Pressure  
Sea Level Pressure 30.03 in    
Wind  
Wind Speed 17 mph (NW)    
Max Wind Speed 37 mph    
Max Gust Speed 46 mph    
Visibility 10 miles    
Events      
Averages and records for this station are not official NWS values.
T = Trace of Precipitation, MM = Missing Value Source: NWS Daily Summary

Daily Weather History Graph

Daily Weather History Graph

Search for Another Location

Airport or City:

Trip Planner

Search our weather history database for the weather conditions in past years. The results will help you decide how hot, cold, wet, or windy it might be!

Date:

Astronomy

Mar. 10, 2014 Rise Set
Actual Time 7:24 AM PDT 7:00 PM PDT
Civil Twilight 6:54 AM PDT 7:31 PM PDT
Nautical Twilight 6:19 AM PDT 8:06 PM PDT
Astronomical Twilight 5:43 AM PDT 8:42 PM PDT
Moon 1:33 PM PDT (3/10) 3:55 AM PDT (3/10)
Length of Visible Light 12h 36m
Length of Day
11h 36m
Waxing Gibbous, 71% of the Moon is Illuminated
Mar 10
Waxing Gibbous
Mar 16
Full
Mar 23
Last Quarter
Mar 30
New
Apr 7
First Quarter

Hourly Weather History & Observations

Time (PDT) Temp. Windchill Dew Point Humidity Pressure Visibility Wind Dir Wind Speed Gust Speed Precip Events Conditions
12:53 AM 45.0 °F 41.2 °F 37.0 °F 74% 29.88 in 10.0 mi WNW 6.9 mph - N/A   Mostly Cloudy
1:53 AM 46.0 °F 41.4 °F 37.0 °F 71% 29.87 in 10.0 mi WNW 9.2 mph - N/A   Overcast
2:53 AM 45.0 °F 40.6 °F 37.0 °F 74% 29.86 in 10.0 mi West 8.1 mph - N/A   Scattered Clouds
3:53 AM 45.0 °F 38.9 °F 37.0 °F 74% 29.85 in 10.0 mi NW 12.7 mph - 0.00 in   Mostly Cloudy
4:53 AM 45.0 °F 39.3 °F 36.0 °F 71% 29.86 in 10.0 mi WNW 11.5 mph - N/A   Overcast
5:53 AM 44.1 °F 36.2 °F 35.1 °F 71% 29.87 in 10.0 mi NW 18.4 mph - N/A   Overcast
6:53 AM 43.0 °F 36.0 °F 34.0 °F 71% 29.89 in 10.0 mi NW 13.8 mph - N/A   Partly Cloudy
7:53 AM 43.0 °F 34.8 °F 33.1 °F 68% 29.91 in 10.0 mi NW 18.4 mph - N/A   Clear
8:53 AM 46.0 °F 38.0 °F 34.0 °F 63% 29.92 in 10.0 mi NW 21.9 mph 31.1 mph N/A   Clear
9:53 AM 45.0 °F 36.9 °F 32.0 °F 60% 29.95 in 10.0 mi NW 20.7 mph 28.8 mph N/A   Clear
10:53 AM 50.0 °F - 33.1 °F 52% 29.97 in 10.0 mi NW 26.5 mph 32.2 mph N/A   Clear
11:53 AM 52.0 °F - 30.9 °F 45% 29.99 in 10.0 mi WNW 26.5 mph 36.8 mph N/A   Clear
12:53 PM 52.0 °F - 30.9 °F 45% 30.01 in 10.0 mi WNW 32.2 mph 41.4 mph N/A   Clear
1:53 PM 54.0 °F - 30.9 °F 41% 30.02 in 10.0 mi WNW 27.6 mph 41.4 mph N/A   Clear
2:53 PM 53.1 °F - 30.9 °F 43% 30.04 in 10.0 mi WNW 27.6 mph 42.6 mph N/A   Clear
3:53 PM 51.1 °F - 30.9 °F 46% 30.08 in 10.0 mi WNW 36.8 mph 46.0 mph N/A   Clear
4:53 PM 48.9 °F - 33.1 °F 54% 30.12 in 10.0 mi WNW 32.2 mph 39.1 mph N/A   Clear
5:53 PM 46.9 °F - 32.0 °F 56% 30.15 in 10.0 mi WNW 19.6 mph 29.9 mph N/A   Clear
6:53 PM 43.0 °F 34.5 °F 32.0 °F 65% 30.18 in 10.0 mi WNW 19.6 mph - N/A   Clear
7:53 PM 41.0 °F 31.6 °F 30.9 °F 67% 30.19 in 10.0 mi WNW 20.7 mph - N/A   Clear
8:53 PM 42.1 °F 33.6 °F 30.0 °F 62% 30.23 in 10.0 mi NNW 18.4 mph - N/A   Clear
9:53 PM 43.0 °F 34.8 °F 30.0 °F 60% 30.27 in 10.0 mi NNW 18.4 mph 25.3 mph N/A   Clear
10:53 PM 42.1 °F 33.3 °F 30.0 °F 62% 30.31 in 10.0 mi NW 19.6 mph 27.6 mph N/A   Clear
11:53 PM 41.0 °F 31.6 °F 30.0 °F 65% 30.34 in 10.0 mi NW 20.7 mph 28.8 mph N/A   Clear